"Pseudo-MPEC" for C3Z6HV2

Created 2020 Nov 28 15:07:05 UT using Find_Orb

Click here for an explanation of pseudo-MPECs

 
 Astrometry: 
     C3Z6HV2  C2020 11 18.50399809 41 57.44 -02 20 17.2    ~BICq 20.72GVNEOCPG96
     C3Z6HV2  C2020 11 18.50925009 41 57.53 -02 20 18.3    ~BICq 20.51GVNEOCPG96
     C3Z6HV2  C2020 11 18.51448109 41 57.67 -02 20 19.5    ~BICq 20.64GVNEOCPG96
     C3Z6HV2  C2020 11 18.51973009 41 57.77 -02 20 20.6    ~BICq 20.70GVNEOCPG96
     C3Z6HV2 HC2020 11 18.53913409 41 58.13 -02 20 24.4    ~BIDb 20.86GVNEOCPG96
     C3Z6HV2 KC2020 11 19I9GTT2/X0!C*0p:mC+e?Al_)W]X#M_LA`'OL6-i.2*r(E?%*_EKQL01
     C3Z6HV2 KC2020 11 19^TbBfeIKkjeL@7c'=j8u!\+uyV^dhP-OURt@%AstrometrynWBu8L01
     C3Z6HV2 KC2020 11 19_?*;\%rZ!Gredacted;YWMquoQ%V'Z.U3I2UxJoTdT4'Ln(s':SiL01
     C3Z6HV2 KC2020 11 19o*oKeOY@*GipVh@K`Nj:Kf0S9lG9E7bO,3;5F5?m%5JG/O-8?GTjL01
     C3Z6HV2 1C2020 11 19.17908 09 42 10.43 -02 22 21.3    ~BJ8M 21.2 VVNEOCP033
     C3Z6HV2 1C2020 11 19.18197 09 42 10.51 -02 22 21.7    ~BJ8M 21.0 VVNEOCP033
     C3Z6HV2 2C2020 11 19g?xZclick1Es06[9vH.fnD_b#O2J^aWP[X+KyJIY5I,E9Ahere86J04
     C3Z6HV2 2C2020 11 19iGV]E;yHjer)')Ybad3`h7s#`%yF;i5ELa;c+k[4LdH4%2?U98XyJ04
     C3Z6HV2 2C2020 11 19=5Rc*vRFAXa\^JB*_VV#XE(kGG`9X9VGEsQAKQ=]lyvuZU,6Xd5:J04
     C3Z6HV2 KC2020 11 19.48007509 42 16.25 -02 23 16.5    ~BJCb 20.30GVNEOCPI52
     C3Z6HV2 KC2020 11 19.49039109 42 16.46 -02 23 18.5    ~BJCb 20.50GVNEOCPI52
     C3Z6HV2 KC2020 11 19.50034509 42 16.65 -02 23 20.5    ~BJCb 20.45GVNEOCPI52
     C3Z6HV2 KC2020 11 19.50907509 42 16.85 -02 23 21.8    ~BJCb 20.47GVNEOCPI52
     C3Z6HV2 KC2020 11 20.46404509 42 34.53 -02 26 13.5    ~BKCM 20.94GVNEOCPI52
     C3Z6HV2 KC2020 11 20.48449009 42 34.91 -02 26 16.8    ~BKCM 20.43GVNEOCPI52
     C3Z6HV2 KC2020 11 20.49594109 42 35.11 -02 26 18.9    ~BKCM 19.74GVNEOCPI52
     C3Z6HV2 KC2020 11 20.50640009 42 35.31 -02 26 21.6    ~BKCM       VNEOCPI52
     C3Z6HV2 HC2020 11 21.40338 09 42 51.42 -02 28 59.6    ~BLAM 21.0 RoNEOCP691
     C3Z6HV2 HC2020 11 21.41274 09 42 51.62 -02 29 01.6    ~BLAM 20.9 RoNEOCP691
     C3Z6HV2 HC2020 11 21.42211 09 42 51.77 -02 29 03.0    ~BLAM 20.4 RoNEOCP691
     C3Z6HV2 1C2020 11 22/\;/vThidii]A0brMFe'v[Vk.F#s\(r3lIB4l,#[DDl,qs,\(=W8246
     C3Z6HV2 1C2020 11 22b?_flA*OformqA9UcXDDWj*Ndk0s'O2joKVaF:69eW0%fsYy=WV.246
     C3Z6HV2 1C2020 11 22a*LRnjO@lsi=)PcwAVcR@B?9!r1XNss2EZi`ccR]RI@]fXB'0cI)246
     C3Z6HV2 KC2020 11 22.46583909 43 09.84 -02 32 04.5    ~BMCM       VNEOCPI52
     C3Z6HV2 KC2020 11 22.48700009 43 10.11 -02 32 08.5    ~BMCM 19.92GVNEOCPI52
     C3Z6HV2 KC2020 11 22.49946909 43 10.32 -02 32 10.6    ~BMCM 20.82GVNEOCPI52
     C3Z6HV2 IC2020 11 23V$!A6):/;9iO]O9'P-*pjp4Hmo2Vrfvq.f!vp?FSo_SPi`[_*QNRL01
     C3Z6HV2 KC2020 11 23xC?.[ulR]Y-_/$UNJ.CcbNRck-n?9mcX!%mvKY*-s9eNh5]eRym^L01
     C3Z6HV2 pC2020 11 23!VP.Ko2explanationZ?kNp=()GiaUQ)jhnwg[Bre+C[-amg[_oQL01
     C3Z6HV2 KC2020 11 23.41862309 43 25.59 -02 34 47.5    ~BNB7 19.80GVNEOCPI52
     C3Z6HV2 KC2020 11 23.43764009 43 25.87 -02 34 51.0    ~BNB7 19.84GVNEOCPI52
     C3Z6HV2 KC2020 11 23.45744409 43 26.21 -02 34 54.0    ~BNB7 20.31GVNEOCPI52
     C3Z6HV2 KC2020 11 25.46043809 43 57.29 -02 40 25.9    ~BPCM 20.13GVNEOCPI52
     C3Z6HV2 KC2020 11 25.47232909 43 57.46 -02 40 27.3    ~BPCM 20.32GVNEOCPI52
     C3Z6HV2 KC2020 11 25.48532809 43 57.67 -02 40 29.4    ~BPCM 20.34GVNEOCPI52
     C3Z6HV2 KC2020 11 25.50007509 43 57.89 -02 40 31.2    ~BPCM 19.91GVNEOCPI52
     C3Z6HV2 KC2020 11 26.46718109 44 11.91 -02 43 06.6    ~BQCM 20.78GVNEOCPI52
     C3Z6HV2 KC2020 11 26.47995909 44 12.11 -02 43 08.6    ~BQCM       VNEOCPI52
     C3Z6HV2 |C2020 11 28QZ#A]vhG@Vp=w2S?*JNy1iGy$`HUj?A'^=o_]%UUg.uLLT1C'0g3807
     C3Z6HV2 |C2020 11 28W]3!.(:Kwb/qXw%T#,TW2eT9PVZch=Pis^r4coh%Lww*N^Q.l.tX807
     C3Z6HV2 |C2020 11 28cgb?G%ad/Q8mIL0niDkfO@CgK+ZZZlwGTpo3X3B/KiXQyPEBuk/J807

Station data:
(033) Karl Schwarzschild Observatory, Tautenburg  (N50.980140 E11.711240)
   Germany. 1.3-m Schmidt.
(246) Klet Observatory-KLENOT  (N48.863293 E14.288100)  Czech Republic.
   1.06-m KLENOT telescope.
(691) Steward Observatory, Kitt Peak - Spacewatch  (N31.962174 W111.600327)
   US/Arizona.  Observer J. V. Scotti. 0.9-m f/3 reflector + CCD.
(807) Cerro Tololo Observatory, La Serena  (S30.169136 W70.805900)  Chile.
(G96) Mt. Lemmon Survey  (N32.442754 W110.788720)  US/Arizona.  Observers T.
   A. Pruyne, B. M. Africano, E. J. Christensen, G. A. Farneth, D. C. Fuls,
   A. R. Gibbs, A. D. Grauer, H. Gröller, J. A. Johnson, R. A. Kowalski, S.
   M. Larson, G. J. Leonard, D. Rankin, R. L. Seaman, F. C. Shelly. 1.5-m
   reflector + 10K CCD.
(I52) Steward Observatory, Mt. Lemmon Station  (N32.442547 W110.788920)
   US/Arizona.  Observers T. A. Pruyne, B. M. Africano, E. J. Christensen, G.
   A. Farneth, D. C. Fuls, A. R. Gibbs, A. D. Grauer, H. Gröller, J. A.
   Johnson, R. A. Kowalski, S. M. Larson, G. J. Leonard, D. Rankin, R. L.
   Seaman, F. C. Shelly. 1.0-m reflector + CCD.
(J04) ESA Optical Ground Station, Tenerife  (N28.300924 W16.511830)  Canary
   Islands (Spain).  Observer D. Abreu. Measurers M. Micheli, D. Koschny, E.
   Schwab, M. Busch, A. Knöfel. 1.0-m f/4.4 reflector + CCD.
(L01) Višnjan Observatory, Tičan  (N45.290900 E13.749300)  Croatia.
   Observers K. Korlević, E. Pettarin. Measurer E. Pettarin. 1.0-m f/2.9
   reflector + CCD.

Orbital elements:  C3Z6HV2
   Perihelion 2022 Jan 10.231319 +/- 264 TT =  5:33:05 (JD 2459589.731319)
Epoch 2020 Nov 28.0 TT = JDT 2459181.5   Ju: 0.6005           AutoNEOCP
M 331.43293374 +/- 16               (J2000 ecliptic)
n   0.06997764 +/- 0.00718          Peri.  358.08398 +/- 190
a   5.83216543 +/- 0.399            Node   177.26588 +/- 0.9
e   0.1697325 +/- 0.0482            Incl.   22.49076 +/- 0.34
P  14.08                   H 13.2   G  0.15   U  9.5  
q 4.84225686 +/- 0.103    Q 6.82207399 +/- 0.895
From 46 observations 2020 Nov. 18-28; mean residual 0".48
Residuals in arcseconds: 
201118 G96  .13-  .25+    201119 I52  .45+  .55-    201123 L01  .23-  .08-    
201118 G96  .27-  .12+    201119 I52  1.1+  .26-    201123 L01  .51-  .06-    
201118 G96  .34+  .11-    201120 I52  .34-  .08+    201123 I52  .06+  .09-    
201118 G96  .35+  .24-    201120 I52  .06-  .44+    201123 I52  .24-  .37-    
201118 G96  .24+  .46-    201120 I52  .09-  .38+    201123 I52  .19+  .02-    
201119 L01  .34-  .08-    201120 I52  .14+  .45-    201125 I52  .58-  .52-    
201119 L01  .22-  .32+    201121 691  .33-  .39+    201125 I52  .57-  .01+    
201119 L01  .24-  .09-    201121 691  .26+  .03+    201125 I52  .19-  .02+    
201119 L01  .26-  .29-    201121 691  .09+  .28+    201125 I52  .04-  .60+    
201119 033  .97-  .55+    201122 246  1.9-  .51+    201126 I52  .19-  .01+    
201119 033  .58-  .68+    201122 246  1.2+  .09-    201126 I52  .22+  .04+    
201119 J04  .25+  .23-    201122 246  2.0+  .93-    201128 807  .24+  .16-    
201119 J04  .20+  .05+    201122 I52  1.2+  .34+    201128 807  .20+  .01-    
201119 J04  .25+  .33-    201122 I52  .08+  .01-    201128 807  .04-  .09+    
201119 I52  .02+  .23-    201122 I52  .18+  .04+    
201119 I52  .33+  .35-    201123 L01  .51-  .17+    

Ephemerides (geocentric):
Date (UTC) HH   RA              Dec         delta   r     elong  mag " sig PA
---- -- -- --  -------------   -----------  ------ ------ -----  --- ---- ---
2020 11 28 15  09 44 40.782   -02 48 38.63  4.7960 5.0111  96.9 20.8 .263  43
2020 11 28 16  09 44 41.307   -02 48 44.88  4.7953 5.0110  96.9 20.8 .269  43
2020 11 28 17  09 44 41.832   -02 48 51.14  4.7946 5.0110  97.0 20.8 .275  44
2020 11 28 18  09 44 42.355   -02 48 57.38  4.7940 5.0110  97.0 20.8 .282  44
2020 11 28 19  09 44 42.877   -02 49 03.62  4.7933 5.0110  97.1 20.8 .288  44
2020 11 28 20  09 44 43.398   -02 49 09.85  4.7926 5.0109  97.1 20.8 .295  44
2020 11 28 21  09 44 43.917   -02 49 16.08  4.7920 5.0109  97.1 20.8 .301  45
2020 11 28 22  09 44 44.436   -02 49 22.30  4.7913 5.0109  97.2 20.8 .308  45
2020 11 28 23  09 44 44.953   -02 49 28.51  4.7906 5.0108  97.2 20.8 .315  45
2020 11 29 00  09 44 45.469   -02 49 34.72  4.7900 5.0108  97.2 20.8 .321  45
2020 11 29 01  09 44 45.983   -02 49 40.92  4.7893 5.0108  97.3 20.8 .328  46
2020 11 29 02  09 44 46.497   -02 49 47.11  4.7887 5.0107  97.3 20.8 .335  46
2020 11 29 03  09 44 47.009   -02 49 53.30  4.7880 5.0107  97.4 20.8 .342  46
2020 11 29 04  09 44 47.520   -02 49 59.47  4.7873 5.0107  97.4 20.8 .349  46
2020 11 29 05  09 44 48.029   -02 50 05.65  4.7867 5.0106  97.4 20.8 .356  46
2020 11 29 06  09 44 48.538   -02 50 11.81  4.7860 5.0106  97.5 20.8 .363  47
2020 11 29 07  09 44 49.045   -02 50 17.97  4.7853 5.0106  97.5 20.8 .371  47
2020 11 29 08  09 44 49.551   -02 50 24.12  4.7847 5.0105  97.5 20.8 .378  47
2020 11 29 09  09 44 50.056   -02 50 30.27  4.7840 5.0105  97.6 20.8 .385  47
2020 11 29 10  09 44 50.559   -02 50 36.41  4.7833 5.0105  97.6 20.8 .393  48
2020 11 29 11  09 44 51.061   -02 50 42.54  4.7827 5.0104  97.7 20.8 .400  48
2020 11 29 12  09 44 51.562   -02 50 48.67  4.7820 5.0104  97.7 20.8 .408  48
2020 11 29 13  09 44 52.062   -02 50 54.78  4.7814 5.0104  97.7 20.8 .415  48
2020 11 29 14  09 44 52.561   -02 51 00.90  4.7807 5.0103  97.8 20.8 .423  48
2020 11 29 15  09 44 53.058   -02 51 07.00  4.7800 5.0103  97.8 20.8 .431  49
2020 11 29 16  09 44 53.554   -02 51 13.10  4.7794 5.0103  97.9 20.8 .439  49
2020 11 29 17  09 44 54.049   -02 51 19.19  4.7787 5.0102  97.9 20.8 .447  49
2020 11 29 18  09 44 54.543   -02 51 25.28  4.7780 5.0102  97.9 20.8 .455  49
2020 11 29 19  09 44 55.035   -02 51 31.35  4.7774 5.0102  98.0 20.8 .463  49
2020 11 29 20  09 44 55.526   -02 51 37.43  4.7767 5.0101  98.0 20.8 .471  50
2020 11 29 21  09 44 56.016   -02 51 43.49  4.7761 5.0101  98.0 20.8 .479  50
2020 11 29 22  09 44 56.505   -02 51 49.55  4.7754 5.0101  98.1 20.8 .487  50
2020 11 29 23  09 44 56.992   -02 51 55.60  4.7747 5.0100  98.1 20.8 .496  50
2020 11 30 00  09 44 57.478   -02 52 01.64  4.7741 5.0100  98.2 20.8 .504  50
2020 11 30 01  09 44 57.963   -02 52 07.68  4.7734 5.0100  98.2 20.8 .513  50
2020 11 30 02  09 44 58.447   -02 52 13.71  4.7727 5.0099  98.2 20.8 .521  51
2020 11 30 03  09 44 58.929   -02 52 19.73  4.7721 5.0099  98.3 20.8 .530  51
2020 11 30 04  09 44 59.410   -02 52 25.75  4.7714 5.0099  98.3 20.8 .539  51
2020 11 30 05  09 44 59.890   -02 52 31.76  4.7708 5.0098  98.3 20.8 .547  51
2020 11 30 06  09 45 00.369   -02 52 37.76  4.7701 5.0098  98.4 20.8 .556  51
2020 11 30 07  09 45 00.847   -02 52 43.76  4.7694 5.0098  98.4 20.8 .565  52
2020 11 30 08  09 45 01.323   -02 52 49.75  4.7688 5.0097  98.5 20.8 .574  52
2020 11 30 09  09 45 01.798   -02 52 55.73  4.7681 5.0097  98.5 20.8 .583  52
2020 11 30 10  09 45 02.272   -02 53 01.71  4.7675 5.0097  98.5 20.8 .593  52
2020 11 30 11  09 45 02.744   -02 53 07.68  4.7668 5.0096  98.6 20.8 .602  52
2020 11 30 12  09 45 03.215   -02 53 13.64  4.7661 5.0096  98.6 20.8 .611  52
2020 11 30 13  09 45 03.685   -02 53 19.59  4.7655 5.0096  98.7 20.8 .621  53
2020 11 30 14  09 45 04.154   -02 53 25.54  4.7648 5.0095  98.7 20.8 .630  53